Weather History for Albertville, AL

Change the Weather History Date:

Wednesday, May 14, 2014

  Actual Average (KGAD) Record (KGAD)
Temperature  
Mean Temperature 68 °F -  
Max Temperature 73 °F 78 °F 90 °F (1943)
Min Temperature 62 °F 54 °F 34 °F (1952)
Cooling Degree Days 2    
Growing Degree Days 18 (Base 50)    
Moisture  
Dew Point 67 °F    
Average Humidity 98    
Maximum Humidity 100    
Minimum Humidity 88    
Precipitation  
Precipitation 0.22 in - - ()
Sea Level Pressure  
Sea Level Pressure 30.00 in    
Wind  
Wind Speed 5 mph (SSE)    
Max Wind Speed 13 mph    
Max Gust Speed 18 mph    
Visibility 8 miles    
Events Rain , Thunderstorm    
Averages and records for this station are not official NWS values.
T = Trace of Precipitation, MM = Missing Value Source: NWS Daily Summary

Daily Weather History Graph

Daily Weather History Graph

Search for Another Location

Airport:

Trip Planner

Search our weather history database for the weather conditions in past years. The results will help you decide how hot, cold, wet, or windy it might be!

Date:

Astronomy

May. 14, 2014 Rise Set
Actual Time 5:43 AM CDT 7:39 PM CDT
Civil Twilight 5:16 AM CDT 8:07 PM CDT
Nautical Twilight 4:42 AM CDT 8:40 PM CDT
Astronomical Twilight 4:06 AM CDT 9:16 PM CDT
Moon 7:45 PM CDT (5/14) 5:39 AM CDT (5/14)
Length of Visible Light 14h 50m
Length of Day
13h 55m
Full, 100% of the Moon is Illuminated
May 14
Full
May 14
Full
May 21
Last Quarter
May 28
New
Jun 5
First Quarter

Hourly Weather History & Observations

Time (CDT) Temp. Dew Point Humidity Pressure Visibility Wind Dir Wind Speed Gust Speed Precip Events Conditions
12:15 AM 68.0 °F 68.0 °F 100% 30.09 in 7.0 mi Calm Calm - N/A   Overcast
12:35 AM 68.0 °F 68.0 °F 100% 30.09 in 7.0 mi SE 3.5 mph - N/A   Mostly Cloudy
1:15 AM 68.0 °F 68.0 °F 100% 30.08 in 10.0 mi ESE 3.5 mph - N/A   Scattered Clouds
1:35 AM 68.0 °F 68.0 °F 100% 30.08 in 10.0 mi SE 3.5 mph - N/A   Scattered Clouds
1:55 AM 68.0 °F 68.0 °F 100% 30.07 in 10.0 mi SE 4.6 mph - N/A   Clear
2:15 AM 68.0 °F 68.0 °F 100% 30.07 in 10.0 mi SE 4.6 mph - N/A   Scattered Clouds
2:35 AM 68.0 °F 68.0 °F 100% 30.05 in 10.0 mi SE 4.6 mph - N/A   Scattered Clouds
2:55 AM 68.0 °F 68.0 °F 100% 30.05 in 10.0 mi SE 4.6 mph - N/A   Mostly Cloudy
3:15 AM 68.0 °F 68.0 °F 100% 30.04 in 10.0 mi SE 5.8 mph - N/A   Mostly Cloudy
3:35 AM 68.0 °F 68.0 °F 100% 30.05 in 10.0 mi SSE 5.8 mph - N/A   Scattered Clouds
3:55 AM 68.0 °F 68.0 °F 100% 30.04 in 10.0 mi SSE 5.8 mph - N/A   Scattered Clouds
4:15 AM 68.0 °F 68.0 °F 100% 30.04 in 10.0 mi SSE 6.9 mph - N/A   Scattered Clouds
4:35 AM 68.0 °F 66.2 °F 94% 30.04 in 10.0 mi SSE 5.8 mph - N/A   Clear
4:55 AM 68.0 °F 66.2 °F 94% 30.04 in 10.0 mi SSE 8.1 mph - N/A   Clear
5:15 AM 68.0 °F 66.2 °F 94% 30.05 in 10.0 mi SSE 8.1 mph - N/A   Clear
5:35 AM 68.0 °F 66.2 °F 94% 30.05 in 10.0 mi SSE 4.6 mph - N/A   Clear
6:15 AM 68.0 °F 64.4 °F 88% 30.05 in 10.0 mi SE 5.8 mph - N/A   Clear
6:35 AM 68.0 °F 66.2 °F 94% 30.07 in 10.0 mi SSE 4.6 mph - N/A   Scattered Clouds
6:55 AM 68.0 °F 66.2 °F 94% 30.07 in 10.0 mi SSE 5.8 mph - N/A   Mostly Cloudy
7:15 AM 68.0 °F 68.0 °F 100% 30.07 in 10.0 mi SE 4.6 mph - N/A   Mostly Cloudy
7:35 AM 68.0 °F 68.0 °F 100% 30.06 in 10.0 mi SE 4.6 mph - N/A   Mostly Cloudy
7:55 AM 69.8 °F 68.0 °F 94% 30.07 in 10.0 mi SSE 6.9 mph - N/A   Mostly Cloudy
8:15 AM 69.8 °F 68.0 °F 94% 30.07 in 10.0 mi SSE 8.1 mph - N/A   Overcast
8:35 AM 69.8 °F 68.0 °F 94% 30.07 in 10.0 mi SSE 6.9 mph - N/A   Overcast
8:55 AM 69.8 °F 68.0 °F 94% 30.06 in 10.0 mi SSE 4.6 mph - N/A   Scattered Clouds
9:15 AM 69.8 °F 68.0 °F 94% 30.06 in 10.0 mi SE 4.6 mph - N/A   Scattered Clouds
9:35 AM 73.4 °F 69.8 °F 88% 30.06 in 10.0 mi SSE 5.8 mph - N/A   Scattered Clouds
9:55 AM 71.6 °F 69.8 °F 94% 30.06 in 10.0 mi SSE 5.8 mph - N/A   Scattered Clouds
10:35 AM 73.4 °F 69.8 °F 88% 30.04 in 10.0 mi SSE 9.2 mph - N/A   Scattered Clouds
10:55 AM 73.4 °F 69.8 °F 88% 30.04 in 10.0 mi SSE 6.9 mph - N/A   Scattered Clouds
11:15 AM 73.4 °F 69.8 °F 88% 30.03 in 10.0 mi SSE 6.9 mph - N/A   Overcast
11:55 AM 71.6 °F 71.6 °F 100% 30.02 in 7.0 mi SE 4.6 mph - N/A Rain Light Rain
12:15 PM 73.4 °F 71.6 °F 94% 30.02 in 10.0 mi SSE 6.9 mph - N/A   Light Drizzle
12:35 PM 73.4 °F 71.6 °F 94% 30.01 in 10.0 mi SSE 4.6 mph - N/A   Mostly Cloudy
12:55 PM 73.4 °F 71.6 °F 94% 30.00 in 10.0 mi SSE 3.5 mph - N/A   Mostly Cloudy
1:15 PM 73.4 °F 71.6 °F 94% 29.99 in 5.0 mi South 3.5 mph - 0.01 in Rain Rain
1:35 PM 71.6 °F 71.6 °F 100% 29.99 in 7.0 mi South 3.5 mph - 0.01 in Rain Light Rain
1:55 PM 71.6 °F 71.6 °F 100% 29.99 in 5.0 mi SSW 8.1 mph - 0.02 in Rain Light Rain
2:15 PM 71.6 °F 71.6 °F 100% 29.98 in 5.0 mi SW 6.9 mph - 0.01 in Rain Rain
2:35 PM 71.6 °F 71.6 °F 100% 29.98 in 7.0 mi SSW 5.8 mph - 0.01 in Rain , Thunderstorm Light Thunderstorms and Rain
3:15 PM 68.0 °F 68.0 °F 100% 29.96 in 3.0 mi SSE 9.2 mph 18.4 mph 0.02 in Rain Rain
3:35 PM 68.0 °F 68.0 °F 100% 29.96 in 7.0 mi ESE 3.5 mph - 0.03 in Rain Light Rain
3:55 PM 66.2 °F 66.2 °F 100% 29.96 in 5.0 mi SE 4.6 mph - 0.04 in Rain Light Rain
4:15 PM 66.2 °F 66.2 °F 100% 29.96 in 4.0 mi SSE 5.8 mph - N/A Rain Light Rain
4:55 PM 68.0 °F 68.0 °F 100% 29.95 in 3.0 mi South 6.9 mph - 0.05 in Rain Rain
5:15 PM 66.2 °F 66.2 °F 100% 29.93 in 4.0 mi SE 6.9 mph - 0.01 in Rain Light Rain
5:35 PM 66.2 °F 66.2 °F 100% 29.93 in 5.0 mi SSE 6.9 mph - 0.02 in Rain Light Rain
5:55 PM 66.2 °F 66.2 °F 100% 29.93 in 7.0 mi SSE 8.1 mph 17.3 mph 0.03 in Rain Light Rain
6:15 PM 66.2 °F 66.2 °F 100% 29.94 in 5.0 mi SSE 10.4 mph 18.4 mph 0.01 in Rain Light Rain
6:35 PM 66.2 °F 66.2 °F 100% 29.94 in 5.0 mi SSE 11.5 mph 18.4 mph 0.02 in Rain Rain
6:55 PM 66.2 °F 66.2 °F 100% 29.93 in 5.0 mi SSE 9.2 mph - 0.03 in Rain Light Rain
7:15 PM 66.2 °F 66.2 °F 100% 29.93 in 7.0 mi SE 8.1 mph - N/A Rain Light Rain
7:35 PM 66.2 °F 66.2 °F 100% 29.93 in 7.0 mi SE 8.1 mph - 0.01 in Rain Light Rain
7:55 PM 66.2 °F 66.2 °F 100% 29.92 in 7.0 mi SSE 6.9 mph 16.1 mph 0.02 in Rain Light Rain
8:15 PM 64.4 °F 64.4 °F 100% 29.92 in 7.0 mi SSE 9.2 mph - N/A Rain Rain
8:35 PM 64.4 °F 64.4 °F 100% 29.92 in 10.0 mi SSE 8.1 mph - 0.01 in   Overcast
8:55 PM 64.4 °F 64.4 °F 100% 29.91 in 10.0 mi SSE 9.2 mph - 0.01 in Rain Rain
9:15 PM 64.4 °F 64.4 °F 100% 29.92 in 10.0 mi South 8.1 mph - N/A Rain Rain
9:35 PM 64.4 °F 64.4 °F 100% 29.93 in 10.0 mi SSW 8.1 mph - N/A   Drizzle
9:55 PM 64.4 °F 64.4 °F 100% 29.92 in 10.0 mi South 6.9 mph - N/A   Overcast
10:15 PM 64.4 °F 64.4 °F 100% 29.93 in 7.0 mi South 4.6 mph - N/A   Overcast
10:35 PM 64.4 °F 64.4 °F 100% 29.93 in 5.0 mi SSE 4.6 mph - N/A Rain Rain
11:15 PM 62.6 °F 62.6 °F 100% 29.94 in 10.0 mi West 12.7 mph 18.4 mph 0.01 in   Overcast
11:35 PM 62.6 °F 62.6 °F 100% 29.94 in 10.0 mi West 9.2 mph - 0.01 in   Overcast
11:55 PM 62.6 °F 62.6 °F 100% 29.94 in 10.0 mi WSW 9.2 mph - 0.01 in   Overcast